Location: Newark
(50.0821°N, 8.2414°E)
Time: 08:09:06
(UTC+00:00)

ISS - Pass Details

Date: 28 July 2019
Orbit: 410 x 421 km, 51.6° (Epoch: 26 August)

Event Time Altitude Azimuth Distance (km) Brightness Sun altitude
Rises 20:38:01 0° 285° (WNW) 2,376 1.1 -10.9°
Reaches altitude 10° 20:40:07 10° 285° (WNW) 1,508 0.0 -11.1°
Maximum altitude 20:43:31 87° 198° (SSW) 426 -3.8 -11.5°
Enters shadow 20:46:06 16° 109° (ESE) 1,183 -2.0 -11.8°
